Skip Page Navigation
NASA JPL Caltech
NASA Logo - Jet Propulsion Laboratory + View the NASA Portal
+ Center for Near-Earth Object Studies
JPL Home Earth Solar System Stars & Galaxies Technology
JPL Solar System Dynamics
BODIES ORBITS EPHEMERIDES TOOLS PHYSICAL DATA DISCOVERY FAQ SITE MAP
IMPORTANT: The SSD Announcement email list is now available. Major changes are coming in the near future, including possible hostname and/or URL changes. To be notified of such changes, subscribe to this email list.

Please visit this page for more details.


JPL Small-Body Database Browser
Search: [ help ]  
10221 Kubrick (1997 UM9)
Classification: Main-belt Asteroid          SPK-ID: 2010221
Ephemeris | Orbit Diagram | Orbital Elements | Mission Design | Physical Parameters | Discovery Circumstances | Close-Approach Data ]

[ show orbit diagram ]
Orbital Elements at Epoch 2458600.5 (2019-Apr-27.0) TDB
Reference: JPL 29 (heliocentric ecliptic J2000)
 Element Value Uncertainty (1-sigma)   Units 
e .03907880301122919 3.4221e-08  
a 2.432173551254564 8.9699e-09 au
q 2.337127120155965 8.4033e-08 au
i 7.509426312704422 4.6886e-06 deg
node 45.70410110465277 2.8603e-05 deg
peri 87.3015005590177 6.8113e-05 deg
M 140.2255248321507 6.2166e-05 deg
tp 2458060.846693482817
(2017-Nov-03.34669348)
0.0002387 TDB
period 1385.448124217986
3.79
7.6643e-06
2.098e-08
d
yr
n .2598437239959464 1.4375e-09 deg/d
Q 2.527219982353163 9.3204e-09 au
  Orbit Determination Parameters
   # obs. used (total)      1861  
   data-arc span      13459 days (36.85 yr)  
   first obs. used      1982-11-09  
   last obs. used      2019-09-15  
   planetary ephem.      DE431  
   SB-pert. ephem.      SB431-N16  
   condition code      0  
   norm. resid. RMS      .49924  
   source      ORB  
   producer      Otto Matic  
   solution date      2019-Sep-24 01:06:30  

Additional Information
 Earth MOID = 1.36601 au 
 Jupiter MOID = 2.47898 au 
 T_jup = 3.494 
[ show covariance matrix ]

Ephemeris | Orbit Diagram | Orbital Elements | Mission Design | Physical Parameters | Discovery Circumstances | Close-Approach Data ]

Physical Parameter Table
Parameter Symbol Value Units Sigma Reference Notes
absolute magnitude H 13.9   n/a MPO395100  
diameter diameter 4.173 km 0.254 urn:nasa:pds:neowise_diameters_albedos::2.0[mainbelt] (http://adsabs.harvard.edu/abs/2011ApJ...741...68M)  
geometric albedo albedo 0.255   0.034 urn:nasa:pds:neowise_diameters_albedos::2.0[mainbelt] (http://adsabs.harvard.edu/abs/2011ApJ...741...68M)  

10221 Kubrick (1997 UM9)          Discovered 1997-Oct-28 by Pravec, P. at Ondrejov
Reference: 19990302/Numbers.arcLast Updated: 2004-04-19

[ show close-approach data ]
Alternate Designations
 1997 UM9 = 1982 VE11 = 1982 VP8 
Ephemeris | Orbit Diagram | Orbital Elements | Mission Design | Physical Parameters | Discovery Circumstances | Close-Approach Data ]
ABOUT SSD CREDITS/AWARDS PRIVACY/COPYRIGHT GLOSSARY LINKS
FirstGov 2020-Jan-28 17:55 UT
(server date/time)  
NASA Home Page
Site Manager:   Ryan S. Park
Webmaster  Alan B. Chamberlin